Location: Colossi of Memnon
(25.7167°N, 32.6167°E)
Time: 11:12:34
(UTC+00:00)

Cosmos 883 Rocket - Pass Details

Date: 05 March 2021
Orbit: 951 x 994 km, 83.0° (Epoch: 21 April)

Event Time Altitude Azimuth Distance (km) Brightness Sun altitude
Exits shadow 02:28:38 35° 217° (SW) 1,517 5.1 -23.4°
Maximum altitude 02:31:05 55° 276° (W) 1,140 4.5 -22.8°
Drops below altitude 10° 02:37:06 10° 354° (N) 2,687 6.8 -21.5°
Sets 02:39:39 0° 359° (N) 3,631 7.5 -20.9°
